Torna al catalogo

STARLINK-32035

AttivoComunicazioniVLEO
NORAD 60107·PAYLOAD·🇺🇸 United States

Lanciato Jun 23, 2024 da Cape Canaveral Space Force Station

Loading…

Prossimi Passaggi (prossime 24 ore)

TLE

AggiornatoSource: CelesTrak SupGP

Epoca: Sep 14, 2026, 22:28 UTC

1 60107C 24117S   26257.93659722  .00028171  00000+0  83217-3 0  2573
2 60107  53.1578 235.7074 0001426  94.1101 301.7393 15.34381786    15

Traccia STARLINK-32035 in tempo reale con AllMySat

Download on the App Store